Tracking 19246 objects as of 19-Aug-2018
HD Live streaming from Space Station
objects crossing your sky now

INSAT 3A

Track INSAT 3A now!
INSAT 3A is classified as:


NORAD ID: 27714
Int'l Code: 2003-013A
Perigee: 35,878.9 km
Apogee: 35,975.4 km
Inclination: 2.1 °
Period: 1,442.9 minutes
Semi major axis: 42298 km
RCS: 22.0529 m2 (large)
Launch date: April 9, 2003
Source: India (IND)
Launch site: FRENCH GUIANA (FRGUI)

12 C-band, 6 extended C-band, 6 Ku-band for voice, video and data transmission to West Asia, East Asia, India; augment present INSAT capacity for communication and meteorological services.
aabbcc
Your satellite tracking list
Your tracking list is empty




NASA's NSSDC Master Catalog

Two Line Element Set (TLE):
1 27714U 03013A   18230.56936500 -.00000129  00000-0  00000+0 0  9998
2 27714   2.0678  85.7375 0011406 244.3642 289.7656  0.99797783 56247
Source of the keplerian elements: AFSPC